�������l�o���
Date,Time,MP-1(��Sv/h),MP-2(��Sv/h),MP-3(��Sv/h),MP-4(��Sv/h),MP-5(��Sv/h),MP-6(��Sv/h),MP-7(��Sv/h),MP-8(��Sv/h),����,����(m/s),���J
2023/12/11,00:00,0.516,0.783,0.487,0.983,0.703,0.315,0.563,0.527,�k�k��,2.5,��
2023/12/11,00:10,0.515,0.785,0.487,0.984,0.704,0.314,0.566,0.527,�k�k��,3.4,��
2023/12/11,00:20,0.516,0.784,0.486,0.985,0.703,0.314,0.566,0.526,�k�k��,4.6,��
2023/12/11,00:30,0.518,0.784,0.486,0.983,0.704,0.314,0.564,0.528,�k�k��,4.9,��
2023/12/11,00:40,0.517,0.783,0.486,0.984,0.702,0.314,0.565,0.526,�k�k��,4.4,��
2023/12/11,00:50,0.516,0.785,0.487,0.984,0.705,0.313,0.565,0.527,�k,3.9,��
2023/12/11,01:00,0.515,0.782,0.486,0.984,0.703,0.313,0.565,0.528,�k,3.6,��
2023/12/11,01:10,0.519,0.785,0.486,0.985,0.703,0.315,0.564,0.527,�k�k��,3.9,��
2023/12/11,01:20,0.517,0.784,0.486,0.987,0.704,0.314,0.565,0.526,�k�k��,3.3,��
2023/12/11,01:30,0.517,0.784,0.488,0.983,0.704,0.313,0.565,0.527,�k��,4.3,��
2023/12/11,01:40,0.515,0.785,0.487,0.984,0.706,0.314,0.565,0.527,�k�k��,5.1,��
2023/12/11,01:50,0.517,0.785,0.486,0.984,0.703,0.314,0.565,0.527,�k�k��,5.4,��
2023/12/11,02:00,0.516,0.785,0.487,0.984,0.705,0.314,0.565,0.527,�k�k��,4.5,��
2023/12/11,02:10,0.516,0.785,0.488,0.984,0.704,0.314,0.566,0.528,�k��,3.8,��
2023/12/11,02:20,0.516,0.784,0.487,0.984,0.704,0.314,0.566,0.528,�k��,4.9,��
2023/12/11,02:30,0.517,0.783,0.486,0.983,0.704,0.313,0.564,0.527,�k��,6.1,��
2023/12/11,02:40,0.516,0.784,0.486,0.984,0.705,0.313,0.566,0.527,�k��,4.4,��
2023/12/11,02:50,0.515,0.785,0.485,0.984,0.704,0.314,0.565,0.527,�k��,3.9,��
2023/12/11,03:00,0.517,0.783,0.486,0.983,0.705,0.314,0.566,0.527,�k��,4.0,��
2023/12/11,03:10,0.518,0.787,0.487,0.985,0.704,0.314,0.566,0.526,�k��,4.8,��
2023/12/11,03:20,0.517,0.782,0.487,0.983,0.704,0.314,0.565,0.527,�k��,5.7,��
2023/12/11,03:30,0.517,0.784,0.487,0.985,0.705,0.315,0.565,0.527,�k�k��,4.5,��
2023/12/11,03:40,0.516,0.784,0.486,0.983,0.705,0.315,0.565,0.526,�k��,4.0,��
2023/12/11,03:50,0.516,0.785,0.486,0.983,0.704,0.314,0.565,0.527,�k��,3.4,��
2023/12/11,04:00,0.516,0.784,0.487,0.983,0.704,0.313,0.565,0.528,�k�k��,3.9,��
2023/12/11,04:10,0.516,0.786,0.486,0.986,0.704,0.314,0.565,0.527,�k�k��,4.4,��
2023/12/11,04:20,0.516,0.786,0.487,0.984,0.702,0.314,0.567,0.526,�k�k��,5.6,��
2023/12/11,04:30,0.515,0.785,0.486,0.984,0.705,0.314,0.566,0.528,�k�k��,6.4,��
2023/12/11,04:40,0.516,0.786,0.486,0.983,0.704,0.314,0.567,0.527,�k�k��,5.2,��
2023/12/11,04:50,0.517,0.785,0.488,0.984,0.705,0.314,0.566,0.527,�k�k��,5.8,��
2023/12/11,05:00,0.517,0.784,0.487,0.986,0.704,0.313,0.564,0.528,�k��,5.5,��
2023/12/11,05:10,0.517,0.785,0.487,0.983,0.704,0.314,0.565,0.526,�k��,5.4,��
2023/12/11,05:20,0.515,0.785,0.486,0.984,0.705,0.313,0.565,0.528,�k�k��,6.1,��
2023/12/11,05:30,0.516,0.787,0.488,0.985,0.705,0.314,0.565,0.527,�k�k��,6.7,��
2023/12/11,05:40,0.515,0.785,0.488,0.985,0.703,0.314,0.565,0.528,�k�k��,7.4,��
2023/12/11,05:50,0.516,0.786,0.486,0.985,0.706,0.314,0.565,0.527,�k�k��,6.7,��
2023/12/11,06:00,0.516,0.786,0.487,0.983,0.704,0.313,0.566,0.526,�k�k��,7.6,��
2023/12/11,06:10,0.518,0.787,0.487,0.986,0.704,0.314,0.566,0.526,�k�k��,8.0,��
2023/12/11,06:20,0.517,0.785,0.487,0.985,0.705,0.314,0.566,0.527,�k�k��,7.3,��
2023/12/11,06:30,0.516,0.785,0.487,0.985,0.704,0.313,0.566,0.527,�k�k��,7.8,��
2023/12/11,06:40,0.516,0.786,0.486,0.987,0.703,0.314,0.565,0.527,�k�k��,7.5,��
2023/12/11,06:50,0.516,0.786,0.487,0.984,0.704,0.313,0.567,0.528,�k�k��,7.3,��
2023/12/11,07:00,0.517,0.786,0.487,0.985,0.705,0.314,0.565,0.527,�k�k��,8.0,��
2023/12/11,07:10,0.517,0.785,0.486,0.985,0.704,0.311,0.566,0.528,�k�k��,7.4,��
2023/12/11,07:20,0.516,0.784,0.487,0.988,0.705,0.313,0.566,0.527,�k�k��,6.6,��
2023/12/11,07:30,0.517,0.785,0.486,0.984,0.703,0.313,0.566,0.527,�k�k��,5.6,��
2023/12/11,07:40,0.519,0.786,0.488,0.985,0.707,0.314,0.565,0.527,�k�k��,5.9,��
2023/12/11,07:50,0.517,0.785,0.487,0.985,0.704,0.313,0.565,0.528,�k��,4.1,��
2023/12/11,08:00,0.516,0.784,0.489,0.986,0.705,0.314,0.566,0.527,�k�k��,3.9,��
2023/12/11,08:10,0.516,0.787,0.486,0.983,0.703,0.312,0.565,0.527,�k�k��,5.1,��
2023/12/11,08:20,0.517,0.784,0.487,0.985,0.703,0.313,0.566,0.527,�k��,4.7,��
2023/12/11,08:30,0.516,0.783,0.486,0.986,0.704,0.313,0.564,0.527,�k��,3.2,��
2023/12/11,08:40,0.517,0.786,0.488,0.985,0.703,0.313,0.566,0.528,�k��,2.8,��
2023/12/11,08:50,0.516,0.785,0.488,0.987,0.707,0.313,0.564,0.528,�k��,3.6,��
2023/12/11,09:00,0.518,0.792,0.488,0.985,0.704,0.314,0.565,0.528,�k��,4.2,��
2023/12/11,09:10,0.517,0.795,0.489,0.984,0.705,0.313,0.565,0.528,�k�k��,3.7,��
2023/12/11,09:20,0.518,0.793,0.489,0.986,0.706,0.314,0.564,0.529,�k�k��,4.4,��
2023/12/11,09:30,0.519,0.787,0.488,0.983,0.704,0.313,0.565,0.529,�k�k��,4.3,��
2023/12/11,09:40,0.517,0.783,0.489,0.985,0.703,0.313,0.564,0.527,�k��,4.6,��
2023/12/11,09:50,0.517,0.784,0.489,0.986,0.703,0.314,0.564,0.528,�k�k��,4.9,��
2023/12/11,10:00,0.517,0.780,0.488,0.983,0.705,0.312,0.565,0.528,�k�k��,4.7,��
2023/12/11,10:10,0.518,0.781,0.488,0.984,0.700,0.315,0.564,0.528,�k,3.7,��
2023/12/11,10:20,0.519,0.784,0.488,0.986,0.699,0.313,0.565,0.527,�k�k��,3.3,��
2023/12/11,10:30,0.516,0.780,0.489,0.986,0.705,0.314,0.564,0.528,�k,3.2,��
2023/12/11,10:40,0.517,0.781,0.491,0.984,0.705,0.313,0.564,0.527,�k,4.2,��
2023/12/11,10:50,0.517,0.780,0.488,0.984,0.704,0.314,0.563,0.527,�k,4.8,��
2023/12/11,11:00,0.518,0.782,0.488,0.986,0.703,0.315,0.565,0.528,�k,4.6,��
2023/12/11,11:10,0.518,0.782,0.489,0.987,0.705,0.313,0.563,0.527,�k,4.0,��
2023/12/11,11:20,0.517,0.780,0.490,0.985,0.705,0.314,0.564,0.525,�k,4.9,��
2023/12/11,11:30,0.516,0.780,0.488,0.986,0.703,0.314,0.562,0.527,�k,4.9,��
2023/12/11,11:40,0.518,0.780,0.489,0.986,0.703,0.314,0.563,0.526,�k,5.2,��
2023/12/11,11:50,0.517,0.779,0.489,0.987,0.704,0.314,0.564,0.526,�k�k��,4.0,��
2023/12/11,12:00,0.514,0.779,0.487,0.987,0.703,0.313,0.563,0.524,�k�k��,4.7,��
2023/12/11,12:10,0.516,0.780,0.489,0.986,0.703,0.313,0.563,0.528,�k,4.6,��
2023/12/11,12:20,0.518,0.775,0.490,0.988,0.705,0.314,0.563,0.527,�k�k��,3.9,��
2023/12/11,12:30,0.517,0.782,0.489,0.985,0.704,0.315,0.565,0.526,�k�k��,4.4,��
2023/12/11,12:40,0.518,0.782,0.489,0.986,0.703,0.314,0.562,0.528,�k,3.1,��
2023/12/11,12:50,0.517,0.783,0.488,0.987,0.703,0.313,0.564,0.526,�k�k��,3.7,��
2023/12/11,13:00,0.517,0.781,0.490,0.986,0.701,0.314,0.563,0.527,�k�k��,4.3,��
2023/12/11,13:10,0.516,0.780,0.490,0.985,0.704,0.316,0.562,0.527,�k,4.1,��
2023/12/11,13:20,0.519,0.779,0.489,0.985,0.705,0.312,0.563,0.527,�k,3.9,��
2023/12/11,13:30,0.517,0.781,0.491,0.989,0.703,0.315,0.564,0.524,�k,4.5,��
2023/12/11,13:40,0.516,0.781,0.490,0.987,0.704,0.314,0.564,0.527,�k,4.1,��
2023/12/11,13:50,0.517,0.783,0.489,0.986,0.705,0.314,0.565,0.526,�k,4.3,��
2023/12/11,14:00,0.517,0.783,0.489,0.985,0.704,0.314,0.563,0.527,�k,3.1,��
2023/12/11,14:10,0.519,0.783,0.490,0.985,0.704,0.314,0.563,0.528,�k,2.6,��
2023/12/11,14:20,0.518,0.781,0.488,0.986,0.705,0.314,0.564,0.525,�k�k��,3.1,��
2023/12/11,14:30,0.518,0.782,0.488,0.987,0.703,0.313,0.564,0.528,�k,3.3,��
2023/12/11,14:40,0.518,0.783,0.490,0.986,0.705,0.314,0.565,0.526,�k,3.2,��
2023/12/11,14:50,0.518,0.784,0.490,0.986,0.704,0.313,0.565,0.527,�k,2.6,��
2023/12/11,15:00,0.519,0.784,0.490,0.986,0.702,0.312,0.565,0.526,�k,3.1,��
2023/12/11,15:10,0.518,0.784,0.489,0.985,0.705,0.314,0.565,0.527,�k,2.6,��
2023/12/11,15:20,0.516,0.782,0.490,0.985,0.706,0.314,0.567,0.529,�k,3.1,��
2023/12/11,15:30,0.517,0.783,0.487,0.985,0.705,0.314,0.565,0.526,�k,2.6,��
2023/12/11,15:40,0.518,0.785,0.489,0.985,0.705,0.314,0.565,0.527,�k�k��,2.8,��
2023/12/11,15:50,0.519,0.783,0.487,0.985,0.705,0.314,0.566,0.527,�k,2.6,��
2023/12/11,16:00,0.517,0.785,0.488,0.987,0.706,0.312,0.565,0.529,�k�k��,3.0,��
2023/12/11,16:10,0.518,0.782,0.488,0.986,0.706,0.314,0.564,0.528,�k�k��,3.9,��
2023/12/11,16:20,0.519,0.784,0.489,0.988,0.707,0.314,0.566,0.527,�k�k��,3.9,��
2023/12/11,16:30,0.517,0.783,0.489,0.987,0.704,0.313,0.565,0.529,�k�k��,4.0,��
2023/12/11,16:40,0.517,0.784,0.488,0.985,0.706,0.314,0.566,0.526,�k�k��,4.1,��
2023/12/11,16:50,0.518,0.784,0.489,0.985,0.705,0.314,0.567,0.527,�k�k��,4.2,��
2023/12/11,17:00,0.517,0.784,0.489,0.985,0.705,0.313,0.567,0.527,�k��,4.7,��
2023/12/11,17:10,0.517,0.784,0.489,0.987,0.704,0.314,0.567,0.527,�k��,3.8,��
2023/12/11,17:20,0.517,0.784,0.487,0.987,0.705,0.312,0.567,0.529,�k��,4.3,��
2023/12/11,17:30,0.518,0.784,0.488,0.985,0.705,0.314,0.566,0.526,�k��,3.1,��
2023/12/11,17:40,0.518,0.784,0.487,0.988,0.706,0.315,0.569,0.527,�k��,3.7,��
2023/12/11,17:50,0.519,0.784,0.490,0.987,0.707,0.313,0.566,0.528,���k��,3.4,��
2023/12/11,18:00,0.517,0.784,0.488,0.988,0.707,0.312,0.566,0.527,���k��,3.8,��
2023/12/11,18:10,0.518,0.784,0.487,0.987,0.708,0.313,0.566,0.528,�k��,3.1,��
2023/12/11,18:20,0.517,0.784,0.488,0.986,0.707,0.314,0.565,0.527,�k��,3.2,��
2023/12/11,18:30,0.518,0.783,0.490,0.988,0.706,0.312,0.565,0.528,���k��,3.6,��
2023/12/11,18:40,0.518,0.783,0.488,0.988,0.707,0.313,0.567,0.527,���k��,3.8,��
2023/12/11,18:50,0.515,0.781,0.488,0.986,0.706,0.313,0.567,0.528,�k��,4.1,��
2023/12/11,19:00,0.517,0.783,0.488,0.986,0.705,0.313,0.566,0.528,�k��,3.6,��
2023/12/11,19:10,0.518,0.784,0.490,0.987,0.705,0.314,0.566,0.527,���k��,4.4,��
2023/12/11,19:20,0.519,0.783,0.488,0.988,0.707,0.315,0.567,0.529,�k��,4.3,��
2023/12/11,19:30,0.517,0.784,0.489,0.989,0.706,0.313,0.566,0.528,�k��,3.1,�L
2023/12/11,19:40,0.515,0.784,0.489,0.988,0.706,0.314,0.568,0.527,�k��,2.6,��
2023/12/11,19:50,0.517,0.784,0.488,0.988,0.706,0.314,0.567,0.529,�k��,3.3,�L
2023/12/11,20:00,0.517,0.784,0.490,0.988,0.707,0.315,0.568,0.528,�k��,3.7,��
2023/12/11,20:10,0.517,0.784,0.488,0.987,0.707,0.315,0.566,0.528,�k��,3.7,��
2023/12/11,20:20,0.518,0.784,0.488,0.989,0.706,0.313,0.566,0.528,�k��,3.5,��
2023/12/11,20:30,0.518,0.784,0.488,0.986,0.706,0.314,0.567,0.528,�k��,3.2,��
2023/12/11,20:40,0.516,0.786,0.489,0.988,0.707,0.314,0.567,0.525,�k��,3.7,��
2023/12/11,20:50,0.517,0.784,0.489,0.988,0.705,0.313,0.567,0.529,�k��,3.5,��
2023/12/11,21:00,0.517,0.783,0.488,0.989,0.706,0.314,0.566,0.528,�k��,3.7,��
2023/12/11,21:10,0.518,0.784,0.488,0.987,0.707,0.314,0.567,0.527,�k�k��,3.7,��
2023/12/11,21:20,0.519,0.785,0.488,0.987,0.706,0.315,0.565,0.529,�k��,4.3,��
2023/12/11,21:30,0.518,0.784,0.489,0.988,0.707,0.315,0.567,0.528,�k��,4.8,��
2023/12/11,21:40,0.519,0.785,0.490,0.990,0.707,0.313,0.568,0.528,�k��,5.3,��
2023/12/11,21:50,0.517,0.786,0.488,0.990,0.708,0.315,0.567,0.528,�k��,5.2,��
2023/12/11,22:00,0.517,0.784,0.490,0.988,0.707,0.314,0.567,0.526,�k�k��,5.7,��
2023/12/11,22:10,0.519,0.786,0.490,0.988,0.707,0.315,0.566,0.529,�k�k��,6.0,��
2023/12/11,22:20,0.519,0.785,0.490,0.989,0.707,0.314,0.567,0.529,�k�k��,6.1,��
2023/12/11,22:30,0.518,0.786,0.489,0.990,0.707,0.314,0.567,0.528,�k�k��,5.9,��
2023/12/11,22:40,0.519,0.785,0.490,0.989,0.707,0.315,0.567,0.528,�k�k��,6.2,��
2023/12/11,22:50,0.518,0.785,0.489,0.988,0.707,0.314,0.567,0.529,�k�k��,6.3,��
2023/12/11,23:00,0.518,0.783,0.489,0.988,0.707,0.315,0.566,0.528,�k�k��,6.3,��
2023/12/11,23:10,0.518,0.785,0.489,0.988,0.707,0.315,0.568,0.528,�k�k��,6.4,��
2023/12/11,23:20,0.518,0.782,0.490,0.987,0.704,0.314,0.567,0.527,�k��,6.2,��
2023/12/11,23:30,0.519,0.786,0.488,0.988,0.708,0.314,0.567,0.528,�k�k��,6.9,��
2023/12/11,23:40,0.518,0.785,0.490,0.987,0.705,0.314,0.565,0.529,�k�k��,6.2,��
2023/12/11,23:50,0.518,0.787,0.490,0.987,0.708,0.315,0.567,0.528,�k�k��,5.7,��
